GSAT0207 (GALILEO 15)

Last updated on Oct. 31, 2020, 5:53 a.m. UTC

1 41859U 16069A   20303.77031046  .00000063  00000-0  00000+0 0  9993
2 41859  54.6708 158.1125 0002529 322.6153  37.4759  1.70473115 24574
UTC
Height (km)
Latitude
Longitude
Inclination
Orbital Period
UTC large
Height (km)
Speed (km/s)
/
Latitude / Longitude
Inclination (degrees)
Orbital Period (minutes)
Azimuth
Elevation
Range (km)
Doppler Factor
iOS Compass Heading
iOS Angle

Next 30 passes for location: Hong Kong

Rise time Rise Azimuth (degrees) Set time Set Azimuth (degrees) Duration Max altitude (degrees)

No matching passes for this satellites